Weather History for Sunlight Mountain, CO

Change the Weather History Date:

Monday, July 15, 2013

  Actual Average (KRIL) Record (KRIL)
Temperature  
Mean Temperature 60 °F 73 °F  
Max Temperature 68 °F 91 °F 102 °F (2003)
Min Temperature 51 °F 55 °F 36 °F (1962)
Degree Days  
Heating Degree Days 6 0  
Month to date heating degree days 0  
Since 1 June heating degree days 59  
Since 1 July heating degree days 0  
Cooling Degree Days 0 8  
Month to date cooling degree days 108  
Year to date cooling degree days 210  
Since 1 June cooling degree days 203  
Growing Degree Days 10 (Base 50)    
Moisture  
Dew Point 45 °F    
Average Humidity 62    
Maximum Humidity 77    
Minimum Humidity 40    
Precipitation  
Precipitation 0.00 in 0.03 in 0.82 in (1992)
Month to date precipitation 0.38  
Year to date precipitation 6.82  
Sea Level Pressure  
Sea Level Pressure 30.52 in    
Wind  
Wind Speed 3 mph (ENE)    
Max Wind Speed 8 mph    
Max Gust Speed -    
Visibility 10 miles    
Events Rain , Thunderstorm    
T = Trace of Precipitation, MM = Missing Value Source: NWS Daily Summary

Daily Weather History Graph

Daily Weather History Graph

Search for Another Location

Airport:

Trip Planner

Search our weather history database for the weather conditions in past years. The results will help you decide how hot, cold, wet, or windy it might be!

Date:

Astronomy

Jul. 15, 2013 Rise Set
Actual Time 5:55 AM MDT 8:35 PM MDT
Civil Twilight 5:23 AM MDT 9:06 PM MDT
Nautical Twilight 4:44 AM MDT 9:45 PM MDT
Astronomical Twilight 4:00 AM MDT 10:30 PM MDT
Moon 1:15 PM MDT (7/15) No Moon Set
Length of Visible Light 15h 43m
Length of Day
14h 40m
Waxing Crescent, 46% of the Moon is Illuminated
Jul 15
Waxing Crescent
Jul 15
First Quarter
Jul 22
Full
Jul 29
Last Quarter
Aug 6
New

Hourly Weather History & Observations

Time (MDT) Temp. Dew Point Humidity Pressure Visibility Wind Dir Wind Speed Gust Speed Precip Events Conditions
12:00 AM 53.6 °F 44.6 °F 72% 30.56 in 10.0 mi East 4.6 mph - N/A   Scattered Clouds
12:20 AM 53.6 °F 46.4 °F 77% 30.56 in 10.0 mi East 4.6 mph - N/A   Scattered Clouds
12:40 AM 53.6 °F 46.4 °F 77% 30.56 in 10.0 mi ENE 5.8 mph - N/A   Clear
12:59 AM 53.6 °F 46.4 °F 77% 30.56 in 10.0 mi East 5.8 mph - N/A   Clear
1:20 AM 53.6 °F 44.6 °F 72% 30.56 in 10.0 mi East 6.9 mph - N/A   Scattered Clouds
1:40 AM 53.6 °F 44.6 °F 72% 30.56 in 10.0 mi East 4.6 mph - N/A   Mostly Cloudy
2:00 AM 53.6 °F 44.6 °F 72% 30.56 in 10.0 mi East 4.6 mph - N/A   Scattered Clouds
2:20 AM 53.6 °F 44.6 °F 72% 30.55 in 10.0 mi East 4.6 mph - N/A   Scattered Clouds
2:40 AM 53.6 °F 44.6 °F 72% 30.55 in 10.0 mi East 4.6 mph - N/A   Clear
3:00 AM 53.6 °F 44.6 °F 72% 30.54 in 10.0 mi East 4.6 mph - N/A   Scattered Clouds
3:19 AM 53.6 °F 44.6 °F 72% 30.54 in 10.0 mi East 3.5 mph - N/A   Scattered Clouds
3:40 AM 53.6 °F 44.6 °F 72% 30.54 in 10.0 mi East 3.5 mph - N/A   Clear
4:00 AM 53.6 °F 44.6 °F 72% 30.54 in 10.0 mi ESE 3.5 mph - N/A   Clear
4:19 AM 51.8 °F 44.6 °F 76% 30.54 in 10.0 mi Calm Calm - N/A   Clear
4:40 AM 53.6 °F 44.6 °F 72% 30.54 in 10.0 mi East 3.5 mph - N/A   Clear
5:00 AM 51.8 °F 42.8 °F 71% 30.53 in 10.0 mi East 3.5 mph - N/A   Clear
5:19 AM 53.6 °F 42.8 °F 67% 30.53 in 10.0 mi ENE 3.5 mph - N/A   Clear
5:40 AM 51.8 °F 44.6 °F 76% 30.53 in 10.0 mi NE 4.6 mph - N/A   Clear
6:00 AM 51.8 °F 44.6 °F 76% 30.53 in 7.0 mi ENE 4.6 mph - N/A   Clear
6:19 AM 51.8 °F 44.6 °F 76% 30.53 in 7.0 mi East 4.6 mph - N/A   Clear
6:40 AM 51.8 °F 44.6 °F 76% 30.53 in 7.0 mi ENE 4.6 mph - N/A   Clear
7:00 AM 53.6 °F 44.6 °F 72% 30.54 in 10.0 mi ENE 3.5 mph - N/A   Clear
7:20 AM 53.6 °F 44.6 °F 72% 30.54 in 10.0 mi NE 4.6 mph - N/A   Clear
7:40 AM 55.4 °F 44.6 °F 67% 30.55 in 10.0 mi Calm Calm - N/A   Clear
8:00 AM 55.4 °F 44.6 °F 67% 30.55 in 10.0 mi Calm Calm - N/A   Clear
8:19 AM 57.2 °F 44.6 °F 63% 30.55 in 10.0 mi Calm Calm - N/A   Clear
8:40 AM 59.0 °F 44.6 °F 59% 30.55 in 10.0 mi Calm Calm - N/A   Clear
9:00 AM 60.8 °F 42.8 °F 52% 30.56 in 10.0 mi Calm Calm - N/A   Clear
9:20 AM 60.8 °F 46.4 °F 59% 30.56 in 10.0 mi Calm Calm - N/A   Clear
9:40 AM 60.8 °F 46.4 °F 59% 30.56 in 10.0 mi Calm Calm - N/A   Clear
10:00 AM 62.6 °F 42.8 °F 48% 30.56 in 10.0 mi Calm Calm - N/A   Clear
10:20 AM 62.6 °F 44.6 °F 52% 30.56 in 10.0 mi Calm Calm - N/A   Scattered Clouds
10:40 AM 64.4 °F 46.4 °F 52% 30.56 in 10.0 mi Calm Calm - N/A   Scattered Clouds
11:00 AM 62.6 °F 46.4 °F 55% 30.56 in 10.0 mi Calm Calm - N/A   Scattered Clouds
11:20 AM 64.4 °F 48.2 °F 56% 30.56 in 10.0 mi Calm Calm - N/A   Overcast
11:40 AM 64.4 °F 46.4 °F 52% 30.56 in 10.0 mi Calm Calm - N/A   Overcast
11:59 AM 62.6 °F 48.2 °F 59% 30.56 in 10.0 mi Calm Calm - N/A   Overcast
12:20 PM 62.6 °F 48.2 °F 59% 30.55 in 10.0 mi Calm Calm - N/A   Overcast
12:39 PM 62.6 °F 46.4 °F 55% 30.55 in 10.0 mi Calm Calm - N/A Thunderstorm Scattered Clouds
1:00 PM 66.2 °F 50.0 °F 56% 30.54 in 10.0 mi Calm Calm - N/A   Scattered Clouds
1:20 PM 64.4 °F 44.6 °F 49% 30.53 in 10.0 mi NNE 3.5 mph - N/A Thunderstorm Mostly Cloudy
1:40 PM 68.0 °F 46.4 °F 46% 30.53 in 10.0 mi NW 5.8 mph - N/A   Scattered Clouds
2:00 PM 68.0 °F 44.6 °F 43% 30.52 in 10.0 mi Calm Calm - N/A Thunderstorm Scattered Clouds
2:19 PM 68.0 °F 44.6 °F 43% 30.51 in 10.0 mi NNW 6.9 mph - N/A Thunderstorm Scattered Clouds
2:40 PM 64.4 °F 44.6 °F 49% 30.51 in 10.0 mi North 4.6 mph - N/A Thunderstorm Mostly Cloudy
3:00 PM 64.4 °F 42.8 °F 45% 30.50 in 10.0 mi North 3.5 mph - N/A Thunderstorm Overcast
3:20 PM 66.2 °F 44.6 °F 46% 30.50 in 10.0 mi Calm Calm - N/A Thunderstorm Mostly Cloudy
3:40 PM 68.0 °F 42.8 °F 40% 30.49 in 10.0 mi NNW 4.6 mph - N/A Thunderstorm Thunderstorm
4:00 PM 66.2 °F 46.4 °F 49% 30.48 in 10.0 mi North 8.1 mph - N/A Thunderstorm Overcast
4:20 PM 68.0 °F 46.4 °F 46% 30.48 in 10.0 mi NNW 3.5 mph - N/A Thunderstorm Overcast
4:39 PM 66.2 °F 44.6 °F 46% 30.48 in 10.0 mi North 4.6 mph - N/A Thunderstorm Overcast
5:00 PM 66.2 °F 42.8 °F 43% 30.48 in 10.0 mi North 5.8 mph - N/A Thunderstorm Overcast
5:20 PM 66.2 °F 44.6 °F 46% 30.48 in 10.0 mi NNE 3.5 mph - N/A Thunderstorm Overcast
5:40 PM 60.8 °F 50.0 °F 68% 30.48 in 7.0 mi Calm Calm - N/A Rain , Thunderstorm Light Thunderstorms and Rain
5:59 PM 60.8 °F 48.2 °F 63% 30.48 in 7.0 mi Calm Calm - N/A Thunderstorm Overcast
6:19 PM 59.0 °F 50.0 °F 72% 30.48 in 7.0 mi East 4.6 mph - N/A Thunderstorm Unknown
6:39 PM 59.0 °F 48.2 °F 67% 30.48 in 7.0 mi ENE 3.5 mph - N/A   Scattered Clouds
6:59 PM 59.0 °F 48.2 °F 67% 30.48 in 7.0 mi ESE 5.8 mph - N/A Thunderstorm Clear
7:20 PM 60.8 °F 48.2 °F 63% 30.47 in 7.0 mi SE 3.5 mph - N/A   Scattered Clouds
7:40 PM 59.0 °F 46.4 °F 63% 30.47 in 7.0 mi Calm Calm - N/A   Scattered Clouds
8:00 PM 59.0 °F 44.6 °F 59% 30.47 in 7.0 mi Calm Calm - N/A   Scattered Clouds
8:20 PM 59.0 °F 44.6 °F 59% 30.48 in 7.0 mi Calm Calm - N/A   Clear
8:40 PM 57.2 °F 44.6 °F 63% 30.48 in 7.0 mi Calm Calm - N/A   Clear
8:59 PM 57.2 °F 42.8 °F 59% 30.48 in 10.0 mi East 3.5 mph - N/A   Scattered Clouds
9:19 PM 57.2 °F 42.8 °F 59% 30.48 in 10.0 mi East 3.5 mph - N/A   Clear
9:40 PM 57.2 °F 42.8 °F 59% 30.49 in 10.0 mi Calm Calm - N/A   Clear
10:00 PM 55.4 °F 42.8 °F 63% 30.49 in 10.0 mi ESE 3.5 mph - N/A   Clear
10:19 PM 55.4 °F 42.8 °F 63% 30.49 in 10.0 mi ESE 3.5 mph - N/A   Scattered Clouds
10:40 PM 55.4 °F 42.8 °F 63% 30.50 in 10.0 mi East 3.5 mph - N/A   Mostly Cloudy
11:00 PM 55.4 °F 44.6 °F 67% 30.50 in 10.0 mi East 3.5 mph - N/A   Mostly Cloudy
11:20 PM 55.4 °F 44.6 °F 67% 30.50 in 10.0 mi East 3.5 mph - N/A   Mostly Cloudy
11:40 PM 55.4 °F 44.6 °F 67% 30.50 in 10.0 mi ESE 3.5 mph - N/A   Overcast
11:59 PM 55.4 °F 44.6 °F 67% 30.51 in 10.0 mi SE 4.6 mph - N/A   Overcast